Wind_Speed
37 37 37 36 37 36 33 29 28 29 29 30 31 31 30 30 28 27 25 23 22 22 21 20 19 18 17 16 15 14 13 12 11 10 10 9 8 8 7 7 7 7 7 8 9 9 10 11 12
39 39 39 40 39 37 32 29 29 29 30 32 33 33 31 30 29 27 26 24 23 23 22 21 20 19 18 17 16 15 14 13 12 11 10 9 8 8 7 7 7 7 7 8 9 10 11 12 13
42 42 42 43 41 36 31 29 29 31 33 34 34 34 32 30 29 27 27 26 25 24 24 23 21 20 19 18 16 15 14 13 12 11 10 9 9 8 8 7 7 7 7 8 9 10 11 12 13
45 45 46 46 42 36 33 32 32 33 34 34 34 34 33 30 29 28 27 27 26 25 25 24 22 21 19 18 17 16 15 14 13 12 11 10 9 9 8 7 8 7 8 9 10 11 12 12 13
48 49 49 47 42 37 35 34 34 35 35 35 35 34 33 31 30 29 28 28 27 26 25 24 23 22 20 19 18 17 16 14 13 12 11 10 10 9 8 8 8 8 9 9 10 11 12 13 14
51 52 51 48 42 39 37 37 36 36 36 36 36 35 33 32 31 30 29 28 28 26 25 24 24 23 21 20 19 18 17 15 14 13 12 10 10 9 8 8 8 9 9 10 11 12 13 14 15
54 53 52 48 44 42 39 39 38 37 37 37 37 36 34 33 32 31 30 29 28 27 25 25 24 23 22 20 20 19 17 16 15 13 12 11 10 10 9 9 9 9 10 11 12 13 14 15 16
54 55 54 51 47 43 40 41 40 39 38 38 38 37 35 34 32 32 31 30 29 27 26 25 25 24 23 21 21 20 18 17 15 14 12 11 11 10 10 10 10 11 11 12 13 14 14 16 17
56 57 55 51 48 43 42 43 42 41 40 40 39 38 36 36 34 33 32 31 29 28 27 26 25 24 23 23 22 21 19 18 16 15 14 12 12 11 11 11 11 12 13 13 14 14 15 17 18
57 58 54 49 48 45 45 45 44 44 43 41 40 39 38 36 35 33 32 32 30 29 28 27 26 25 24 24 23 22 20 19 17 16 15 14 13 12 12 12 12 13 14 14 14 15 17 18 19
56 56 52 51 49 48 48 48 47 46 45 42 41 39 39 37 36 34 33 32 31 30 29 27 26 26 25 25 24 23 21 20 19 17 16 15 14 13 13 13 13 14 14 14 15 17 18 19 20
56 55 54 53 51 50 50 50 49 48 45 44 43 42 40 39 37 35 34 33 32 31 29 28 27 27 26 26 25 24 23 21 20 18 17 16 15 14 14 14 14 15 15 15 16 17 18 19 20
55 55 54 54 54 53 52 52 51 50 47 46 45 44 42 40 38 37 36 35 33 32 31 29 28 28 27 27 26 25 24 22 21 20 18 17 16 15 15 15 15 16 16 16 17 18 19 20 21
54 55 55 55 55 55 54 54 54 51 48 48 47 45 44 42 40 39 38 36 34 33 32 30 29 28 28 28 27 26 25 24 23 21 20 19 17 17 16 16 16 16 17 17 18 19 20 21 22
52 55 56 56 56 55 56 57 55 51 50 50 48 47 45 43 41 40 39 37 35 34 33 31 30 29 29 29 28 27 26 25 24 23 22 20 19 18 17 17 17 17 18 18 19 20 21 22 23
52 55 56 56 57 56 58 59 54 52 52 51 50 48 47 45 43 41 40 39 37 36 34 33 31 31 30 29 29 28 27 26 25 24 23 21 20 19 19 19 19 18 19 19 20 20 21 22 24
51 54 55 54 56 57 59 59 55 54 54 53 51 50 48 47 44 42 41 40 38 37 36 34 33 32 31 30 30 29 28 27 26 25 24 23 22 21 20 20 20 20 20 20 21 22 23 24 25
49 51 53 53 54 56 60 60 57 56 55 55 53 51 50 48 46 43 42 42 40 39 38 36 34 33 33 32 31 30 28 28 27 26 25 24 23 22 21 21 21 21 21 22 22 23 24 25 26
48 50 53 53 53 55 59 60 59 59 58 57 56 54 52 49 47 45 44 43 42 40 39 38 36 35 34 32 31 30 29 29 28 27 26 25 24 23 23 22 22 22 22 23 23 24 25 26 27
48 50 52 53 53 55 58 61 61 61 60 58 57 56 54 51 49 47 45 44 43 42 40 39 38 36 35 33 32 32 31 30 29 28 27 27 26 25 24 23 23 23 24 24 25 26 26 27 28
48 49 49 52 52 53 56 61 62 62 61 60 59 58 56 53 51 49 47 45 44 43 42 40 39 37 36 35 34 33 33 31 30 29 28 28 27 26 25 24 24 25 25 26 26 27 27 28 29
47 47 48 50 53 54 56 59 62 62 62 61 60 59 57 55 53 51 49 47 45 43 42 42 41 39 38 37 35 34 33 32 31 31 30 29 28 27 26 26 26 26 27 27 28 28 29 29 30
44 46 47 48 50 54 55 59 60 62 64 61 59 58 58 56 54 52 50 48 46 44 44 43 42 41 39 38 37 35 34 33 33 32 31 30 29 28 28 27 27 28 28 29 29 29 30 30 31
41 43 46 47 49 54 54 57 61 59 61 60 58 58 58 56 55 53 51 50 48 46 45 44 43 42 40 39 38 37 35 35 34 33 32 32 31 30 29 29 29 29 30 30 30 30 31 31 32
40 41 43 46 50 53 52 56 61 56 56 58 58 58 57 57 56 55 53 52 50 48 47 46 44 43 41 39 38 37 36 36 35 34 34 33 32 31 31 30 30 31 31 31 31 31 32 33 34
38 40 41 44 48 51 52 56 57 53 54 57 58 58 57 57 56 56 54 53 51 49 47 47 46 44 42 41 39 38 37 37 36 35 35 34 33 33 33 32 32 32 32 32 32 32 33 34 35
37 39 39 41 45 49 52 53 54 52 52 54 56 57 57 57 56 56 55 54 53 50 49 48 47 45 44 42 40 39 38 38 37 36 36 35 35 34 34 33 33 32 33 33 33 33 34 35 36
35 36 38 40 41 44 49 51 53 50 49 51 54 54 55 55 56 55 55 55 54 52 50 49 48 47 45 44 42 41 40 38 38 38 37 36 36 35 35 34 33 33 34 34 34 35 36 37 37
34 37 40 41 43 43 44 46 47 47 48 49 50 51 52 54 55 54 54 55 54 53 52 50 49 48 47 45 43 42 41 40 39 38 37 37 36 36 35 35 34 34 34 35 36 36 37 37 38
34 37 40 42 44 45 45 43 43 44 47 48 48 49 50 51 52 53 53 54 54 53 52 51 49 48 47 45 44 43 41 41 40 39 38 37 36 36 36 36 35 35 35 36 37 37 37 38 38
Wind_Direction
245 243 241 239 239 238 236 234 231 229 227 225 225 226 228 230 230 229 225 222 222 224 225 225 226 226 226 226 229 233 235 238 240 243 246 250 256 262 268 275 283 291 296 302 307 310 313 316 317
244 243 241 239 238 238 236 234 231 229 227 225 225 226 227 229 229 228 225 222 221 223 224 224 224 225 225 226 229 233 234 236 237 238 241 244 249 257 264 272 280 287 293 299 304 309 313 315 316
243 242 241 239 238 237 236 233 231 228 225 224 225 225 226 227 227 226 224 222 221 222 223 222 222 224 225 226 229 231 231 232 233 234 235 239 246 254 261 269 278 285 291 299 305 309 313 315 317
242 241 240 239 238 236 234 231 229 227 226 225 224 225 225 225 225 225 222 221 221 221 222 221 221 223 225 226 228 229 228 227 227 228 231 238 245 253 257 266 277 284 292 299 306 310 314 315 316
241 240 239 239 237 234 233 231 229 227 227 226 225 224 223 222 223 223 221 220 220 219 220 221 221 223 224 226 226 225 223 223 223 225 231 238 245 249 255 265 274 283 292 299 305 311 313 315 316
241 239 239 238 235 232 231 230 229 227 226 226 225 224 222 220 220 221 219 219 219 218 218 220 220 222 224 224 223 220 220 222 223 225 231 236 240 244 254 265 274 283 292 297 303 308 311 314 315
240 239 238 236 233 230 229 229 227 226 226 225 224 223 222 220 219 219 219 218 218 217 218 219 220 221 222 222 220 218 219 220 222 224 228 233 238 244 254 266 275 283 290 297 302 307 310 313 315
239 238 236 233 231 228 228 228 227 226 226 224 223 222 221 220 219 218 218 219 218 217 218 219 219 220 220 220 219 217 217 219 222 225 228 234 240 246 256 266 273 281 290 297 302 306 309 312 315
237 237 235 232 231 227 227 227 226 226 224 223 223 222 220 220 218 218 218 218 218 218 218 219 219 219 220 219 217 216 217 219 223 227 230 235 241 248 257 266 274 282 290 296 300 304 308 312 314
236 236 234 231 230 227 225 226 225 225 224 222 222 221 221 219 218 217 217 217 217 217 218 219 219 219 220 218 216 216 218 221 224 228 231 236 242 249 258 267 276 283 288 293 298 304 308 311 313
236 235 233 230 228 225 224 224 224 225 224 223 222 221 220 219 218 217 216 216 216 217 218 218 219 219 219 218 217 217 219 222 225 229 232 237 243 250 259 269 277 282 287 292 298 304 308 310 312
235 233 231 228 226 224 222 223 224 224 223 222 222 221 220 218 217 216 215 214 215 216 217 217 218 219 218 218 218 219 220 223 226 229 234 239 245 252 260 270 277 282 287 291 298 304 307 310 312
233 232 230 228 225 224 222 222 222 222 221 221 222 221 220 219 218 215 214 214 214 215 216 217 218 218 218 218 219 219 221 224 226 231 235 241 246 253 260 269 276 282 286 291 297 302 306 309 311
231 230 229 227 225 224 223 221 221 220 220 221 221 221 220 219 218 217 215 215 215 216 216 217 218 219 219 218 219 220 222 225 228 232 237 242 248 254 261 268 277 283 286 291 295 300 304 308 311
230 229 228 226 224 224 224 222 220 219 220 220 220 220 219 219 218 217 216 215 215 215 216 217 219 220 219 219 219 221 223 226 229 233 238 243 249 254 262 269 277 281 285 290 294 299 303 306 310
229 228 226 225 224 223 223 222 219 219 220 220 220 220 219 218 217 217 216 216 216 215 216 217 219 220 220 220 221 222 225 228 231 235 239 244 248 254 262 269 276 279 284 289 293 297 301 305 308
228 227 225 223 224 223 224 221 218 219 220 219 219 220 220 218 217 217 217 217 217 216 216 217 218 219 220 221 222 223 226 230 233 236 240 244 248 255 262 269 273 278 283 288 292 296 300 303 306
228 227 225 222 222 223 224 222 218 219 219 219 218 218 220 219 217 217 217 217 217 217 217 217 218 219 220 221 223 224 228 232 236 238 241 244 250 256 262 267 272 277 282 287 291 295 299 302 304
228 228 226 223 223 223 223 223 219 218 219 219 218 218 219 219 218 218 217 217 218 218 218 218 218 220 221 223 225 227 230 234 236 238 242 246 252 256 261 266 271 276 281 286 290 294 298 301 303
225 226 225 224 223 224 224 223 220 218 219 219 218 218 218 219 219 218 218 217 218 219 219 219 220 221 223 224 227 229 231 233 236 239 243 247 252 256 260 265 270 274 280 284 288 293 296 300 302
224 225 225 226 224 226 225 224 221 219 219 219 218 218 218 219 219 219 219 219 219 220 220 220 221 223 224 226 228 230 232 234 237 241 244 248 252 256 261 264 269 274 279 283 287 291 295 298 301
225 224 225 226 227 225 225 226 221 220 219 218 218 218 218 218 220 220 221 220 220 220 221 222 223 224 226 228 230 232 234 236 239 242 245 248 252 257 261 265 269 274 278 282 286 290 294 296 299
226 224 226 227 229 228 224 227 221 221 220 218 218 219 219 219 221 221 222 222 222 222 222 223 224 225 227 230 232 233 235 237 240 243 246 249 252 256 261 265 269 273 277 281 285 290 293 295 298
224 225 226 227 230 230 224 228 224 220 220 220 219 219 220 220 222 222 223 223 223 223 223 224 225 227 228 231 233 234 236 238 241 244 247 249 252 256 260 264 268 273 277 281 285 288 291 294 296
223 224 226 228 230 230 225 229 226 219 220 221 220 220 221 221 222 223 223 224 224 224 225 225 227 228 230 232 234 235 237 239 242 245 247 249 252 256 259 263 267 273 277 281 284 287 290 292 295
222 224 226 230 231 231 229 230 226 222 220 221 221 221 220 221 222 223 224 225 225 226 226 227 228 229 231 233 235 236 237 240 243 245 248 250 252 255 258 263 267 272 276 280 284 286 289 291 293
222 223 225 230 232 233 232 230 227 223 221 221 221 222 221 221 222 223 224 225 226 227 227 228 230 231 232 233 235 236 238 241 243 245 247 250 253 256 258 262 266 271 275 279 282 285 288 290 292
225 224 224 227 231 231 231 229 227 223 222 221 221 222 222 222 223 224 225 226 227 228 229 229 230 232 233 234 236 237 239 241 244 245 247 251 253 256 258 262 266 270 274 277 281 284 286 288 291
223 224 225 228 231 232 231 228 226 225 224 223 222 223 222 223 223 224 226 226 227 228 229 230 231 231 233 234 235 237 239 241 243 246 248 250 253 255 259 262 266 270 273 277 280 283 285 287 289
225 225 226 229 231 232 231 227 224 225 223 222 222 222 222 221 222 223 225 226 227 227 228 229 230 231 232 234 235 237 239 241 243 245 248 250 252 255 258 262 265 269 273 276 279 281 284 286 288
Height
5810 5812 5814 5816 5818 5820 5823 5829 5831 5833 5835 5838 5840 5841 5844 5847 5850 5855 5856 5857 5859 5861 5863 5865 5866 5868 5870 5872 5873 5874 5875 5876 5877 5878 5878 5879 5879 5880 5880 5880 5880 5879 5879 5878 5877 5877 5876 5875 5874
5802 5804 5806 5808 5810 5813 5819 5824 5826 5828 5830 5832 5834 5836 5839 5842 5845 5848 5851 5853 5855 5857 5859 5862 5864 5866 5867 5869 5871 5872 5873 5874 5875 5876 5877 5877 5878 5878 5879 5878 5878 5878 5877 5877 5876 5875 5875 5873 5872
5793 5795 5798 5799 5802 5808 5814 5818 5820 5821 5823 5825 5827 5830 5834 5837 5840 5843 5846 5849 5851 5854 5856 5858 5861 5863 5865 5867 5868 5870 5871 5872 5873 5874 5875 5876 5876 5877 5877 5877 5877 5876 5876 5875 5874 5874 5873 5872 5870
5784 5786 5788 5791 5796 5803 5808 5811 5812 5814 5816 5819 5822 5825 5829 5833 5836 5839 5842 5844 5847 5850 5852 5855 5857 5859 5862 5864 5866 5867 5869 5870 5871 5872 5873 5874 5875 5875 5875 5875 5875 5875 5874 5873 5873 5872 5871 5870 5868
5772 5775 5778 5782 5789 5797 5800 5803 5805 5807 5810 5813 5816 5820 5823 5828 5831 5834 5837 5840 5842 5845 5848 5851 5853 5856 5858 5861 5863 5864 5866 5868 5869 5870 5871 5872 5873 5873 5874 5874 5873 5873 5872 5872 5871 5870 5869 5868 5866
5761 5764 5768 5773 5782 5789 5792 5795 5798 5801 5804 5807 5810 5814 5818 5822 5826 5829 5832 5835 5838 5841 5844 5847 5850 5852 5855 5857 5860 5862 5864 5865 5867 5868 5869 5870 5871 5871 5872 5872 5871 5871 5870 5870 5869 5868 5867 5865 5863
5750 5753 5757 5765 5773 5779 5785 5787 5790 5794 5797 5801 5804 5808 5812 5817 5820 5824 5827 5830 5833 5837 5840 5843 5846 5849 5851 5854 5856 5859 5861 5863 5864 5866 5867 5868 5868 5869 5869 5869 5869 5869 5868 5867 5866 5865 5864 5863 5861
5738 5741 5746 5755 5763 5771 5776 5778 5782 5786 5790 5794 5797 5802 5807 5811 5815 5819 5822 5825 5829 5832 5836 5839 5842 5845 5848 5850 5853 5856 5858 5860 5862 5863 5864 5865 5866 5867 5867 5867 5867 5866 5866 5865 5864 5863 5861 5860 5858
5724 5728 5735 5747 5755 5763 5766 5769 5774 5778 5782 5786 5791 5796 5801 5804 5809 5813 5817 5821 5824 5828 5831 5835 5838 5841 5844 5847 5850 5852 5855 5857 5859 5860 5862 5863 5864 5864 5865 5865 5864 5864 5863 5862 5861 5860 5858 5857 5855
5711 5716 5728 5739 5745 5752 5756 5760 5764 5768 5773 5779 5784 5789 5793 5798 5803 5808 5812 5816 5820 5824 5827 5831 5834 5837 5840 5843 5846 5849 5851 5854 5856 5857 5859 5860 5861 5861 5862 5862 5862 5861 5860 5859 5858 5857 5855 5854 5851
5700 5708 5719 5726 5733 5739 5744 5749 5754 5759 5765 5773 5777 5782 5786 5791 5797 5802 5807 5811 5815 5818 5822 5826 5829 5833 5836 5839 5842 5845 5848 5850 5852 5854 5855 5857 5858 5858 5859 5859 5858 5858 5857 5856 5855 5854 5852 5850 5848
5689 5698 5705 5714 5720 5727 5733 5739 5744 5750 5759 5765 5770 5774 5779 5785 5790 5796 5801 5805 5809 5813 5817 5821 5825 5828 5832 5835 5838 5841 5844 5847 5849 5851 5852 5853 5854 5855 5855 5855 5855 5855 5854 5853 5852 5850 5849 5847 5844
5677 5686 5693 5701 5708 5715 5721 5727 5734 5742 5750 5756 5761 5766 5772 5778 5784 5789 5794 5799 5804 5808 5812 5816 5820 5823 5827 5830 5834 5837 5840 5843 5845 5847 5848 5850 5851 5851 5852 5852 5851 5851 5850 5849 5848 5846 5845 5843 5840
5667 5673 5680 5688 5696 5704 5710 5717 5723 5734 5741 5747 5752 5759 5765 5771 5777 5782 5788 5794 5798 5803 5807 5811 5815 5819 5822 5826 5829 5833 5836 5838 5841 5843 5844 5846 5847 5847 5848 5848 5847 5847 5846 5845 5844 5843 5841 5839 5836
5655 5661 5668 5677 5685 5693 5699 5705 5715 5727 5731 5737 5744 5750 5757 5763 5769 5775 5782 5787 5792 5797 5801 5806 5809 5813 5817 5821 5824 5828 5831 5834 5836 5838 5840 5842 5843 5843 5844 5844 5844 5843 5842 5841 5840 5838 5837 5835 5832
5642 5648 5656 5667 5675 5682 5687 5696 5709 5716 5721 5728 5735 5742 5749 5755 5762 5768 5774 5780 5786 5791 5796 5800 5804 5808 5812 5816 5819 5823 5826 5829 5832 5834 5835 5837 5838 5839 5839 5839 5839 5839 5838 5837 5836 5834 5832 5830 5828
5629 5636 5645 5657 5663 5670 5675 5686 5699 5704 5710 5718 5726 5733 5740 5747 5754 5761 5767 5773 5779 5784 5789 5794 5799 5803 5807 5810 5814 5818 5821 5824 5826 5829 5831 5832 5833 5834 5835 5835 5835 5834 5833 5832 5831 5829 5828 5826 5823
5621 5628 5636 5644 5653 5658 5665 5675 5686 5693 5700 5708 5717 5724 5731 5739 5747 5754 5760 5765 5771 5777 5782 5788 5792 5797 5801 5805 5809 5812 5816 5819 5821 5824 5825 5827 5828 5829 5830 5830 5830 5829 5829 5828 5826 5825 5823 5821 5818
5611 5617 5624 5633 5641 5646 5654 5662 5673 5680 5688 5697 5706 5715 5722 5731 5739 5745 5751 5757 5763 5769 5776 5781 5786 5791 5795 5799 5803 5807 5810 5813 5816 5818 5820 5822 5823 5824 5825 5825 5825 5824 5824 5823 5821 5820 5818 5816 5813
5599 5605 5614 5622 5629 5634 5641 5649 5659 5668 5677 5687 5696 5705 5714 5722 5729 5736 5743 5750 5756 5762 5769 5774 5780 5784 5789 5794 5797 5801 5804 5807 5809 5812 5814 5816 5817 5818 5819 5819 5819 5819 5818 5817 5816 5814 5812 5810 5808
5589 5596 5605 5612 5618 5623 5629 5636 5647 5657 5666 5676 5686 5695 5704 5713 5721 5728 5735 5742 5749 5755 5761 5767 5773 5778 5782 5787 5790 5794 5797 5800 5804 5806 5808 5810 5811 5813 5813 5814 5813 5813 5812 5811 5810 5808 5807 5804 5802
5582 5590 5596 5601 5607 5612 5619 5623 5636 5646 5655 5665 5676 5686 5695 5704 5712 5720 5727 5734 5741 5748 5754 5760 5765 5770 5775 5779 5783 5787 5791 5795 5798 5800 5802 5804 5805 5806 5807 5807 5807 5807 5806 5805 5804 5802 5800 5798 5796
5576 5582 5587 5592 5596 5601 5608 5612 5625 5634 5644 5657 5668 5678 5687 5696 5704 5712 5719 5726 5733 5740 5746 5752 5757 5762 5767 5772 5776 5781 5785 5788 5790 5793 5795 5797 5799 5800 5801 5801 5801 5800 5800 5799 5797 5796 5794 5792 5789
5567 5573 5578 5581 5585 5589 5600 5603 5612 5626 5639 5651 5660 5669 5678 5686 5695 5703 5710 5717 5724 5731 5737 5743 5748 5754 5759 5764 5769 5773 5777 5780 5783 5786 5788 5790 5792 5793 5794 5794 5794 5794 5793 5792 5791 5789 5787 5785 5782
5559 5564 5569 5572 5574 5581 5593 5594 5604 5622 5632 5641 5651 5659 5667 5676 5684 5693 5700 5708 5715 5722 5728 5734 5740 5746 5751 5756 5761 5766 5769 5772 5776 5778 5781 5783 5784 5786 5786 5787 5787 5787 5786 5785 5784 5782 5780 5778 5775
5552 5557 5562 5566 5570 5577 5583 5586 5600 5614 5622 5629 5638 5647 5656 5664 5674 5682 5690 5698 5706 5713 5720 5726 5732 5738 5743 5748 5753 5757 5761 5764 5768 5771 5773 5775 5777 5778 5779 5779 5779 5779 5779 5778 5777 5775 5773 5771 5768
5546 5549 5556 5560 5563 5568 5572 5581 5592 5602 5611 5620 5629 5637 5646 5655 5663 5672 5680 5688 5696 5703 5710 5717 5723 5729 5734 5740 5744 5749 5752 5756 5760 5762 5765 5767 5769 5770 5771 5772 5772 5772 5771 5770 5769 5768 5765 5763 5760
5540 5544 5548 5551 5555 5559 5566 5574 5584 5596 5604 5612 5621 5629 5638 5646 5654 5662 5670 5677 5685 5693 5701 5707 5713 5720 5725 5730 5735 5740 5744 5748 5751 5753 5756 5759 5761 5762 5763 5764 5764 5764 5763 5762 5761 5760 5758 5755 5752
5533 5537 5540 5544 5548 5553 5559 5570 5579 5588 5596 5603 5611 5619 5627 5635 5644 5651 5659 5667 5675 5682 5690 5697 5703 5709 5715 5721 5726 5730 5735 5739 5742 5745 5748 5750 5752 5753 5755 5755 5756 5756 5755 5754 5753 5752 5749 5747 5744
5525 5529 5533 5538 5542 5546 5552 5563 5569 5577 5585 5592 5600 5607 5615 5623 5632 5640 5648 5656 5663 5671 5679 5686 5693 5699 5706 5711 5716 5721 5725 5729 5733 5736 5739 5741 5743 5745 5746 5747 5747 5747 5747 5746 5745 5743 5741 5739 5736